COSMOS 1989 (ETALON 1)

Last updated on Jan. 23, 2021, 7:38 a.m. UTC

1 19751U 89001C   21022.87883251 -.00000002  00000-0  00000-0 0  9993
2 19751  64.2108 139.9370 0023020 211.4525 128.0038  2.13156300249340
UTC
Height (km)
Latitude
Longitude
Inclination
Orbital Period
UTC large
Height (km)
Speed (km/s)
/
Latitude / Longitude
Inclination (degrees)
Orbital Period (minutes)
Azimuth
Elevation
Range (km)
Doppler Factor
iOS Compass Heading
iOS Angle

Next 30 passes for location: Hong Kong

Rise time Rise Azimuth (degrees) Set time Set Azimuth (degrees) Duration Max altitude (degrees)

No matching passes for this satellites